Flag for United Kingdom Weather past 2 weeks in Saint Helier, Jersey, United Kingdom

Now
48 °F

Partly sunny.


Feels Like: 43 °F
Forecast: N/A
Wind: 12 mph from Northwest

Location: Jersey Airport

Current Time: Dec 20, 2014 at 3:22:32 PM

Latest Report: Dec 20, 2014 at 2:50 PM


Visibility: N/A

Pressure: 30.48 "Hg

Humidity: 82%

Dew point: 43 °F

Location of Saint HelierLocation

Historic Weather in Saint Helier — Graph

°F

Saint Helier temperature yesterday

Maximum temperature yesterday: 54 °F (at 4:50 AM)
Minimum temperature yesterday: 48 °F (at 5:50 PM)
Average temperature yesterday: 51 °F

Past Weeks' High & Low Weather Summary

 TemperatureHumidityPressure
High54 °F (Dec 10, 3:50 AM)100% (Dec 7, 4:20 AM)30.45 "Hg (Dec 7, 4:20 AM)
Low37 °F (Dec 6, 6:50 PM)57% (Dec 8, 4:50 PM)29.47 "Hg (Dec 12, 9:20 AM)
Average48 °F83%30.08 "Hg
* Reported Dec 5 2:20 PM — Dec 20 2:20 PM, Saint Helier, Weather by CustomWeather, © 2014

Note: Actual official high and low records may vary slightly from our data, if they occured in-between our weather recording intervals... More about our weather records

Advertising

Saint Helier weather history for previous 24 hours

 ConditionsComfort  
Time TempWeatherWind HumidityBarometerVisibility
2:20 PM
Dec 20
50 °FPartly sunny.16 mph71%30.45 "HgN/A
1:50 PM50 °FSprinkles. Partly sunny.14 mph76%30.45 "HgN/A
1:20 PM48 °FPartly sunny.13 mph82%30.45 "HgN/A
12:50 PM50 °FPartly sunny.18 mph82%30.45 "HgN/A
12:20 PM50 °FPartly sunny.21 mph76%30.45 "HgN/A
11:20 AM50 °FPartly sunny.23 mph76%30.45 "HgN/A
10:50 AM50 °FPassing clouds.20 mph71%30.45 "HgN/A
10:20 AM50 °FPartly sunny.20 mph76%30.45 "HgN/A
9:50 AM50 °FPartly sunny.24 mph71%30.45 "HgN/A
9:20 AM50 °FPartly sunny.23 mph71%30.42 "HgN/A
8:50 AM50 °FPartly sunny.24 mph71%30.42 "HgN/A
8:20 AM48 °FPartly sunny.23 mph76%30.42 "HgN/A
7:50 AM50 °FPassing clouds.22 mph71%30.42 "HgN/A
7:20 AM50 °FPassing clouds.21 mph71%30.42 "HgN/A
6:50 AM50 °FPassing clouds.17 mph71%30.42 "HgN/A
6:20 AM50 °FPassing clouds.14 mph62%30.42 "HgN/A
5:50 AM50 °FPassing clouds.18 mph67%30.39 "HgN/A
5:20 AM50 °FPassing clouds.20 mph67%30.39 "HgN/A
4:50 AM50 °FPassing clouds.13 mph71%30.39 "HgN/A
4:20 AM50 °FPassing clouds.17 mph67%30.39 "HgN/A
3:50 AM50 °FPassing clouds.17 mph62%30.39 "HgN/A
8:50 PM
Dec 19
48 °FPassing clouds.14 mph62%30.33 "HgN/A
8:20 PM50 °FPassing clouds.14 mph62%30.33 "HgN/A
7:50 PM48 °FPassing clouds.12 mph66%30.33 "HgN/A
7:20 PM50 °FPassing clouds.14 mph62%30.30 "HgN/A
6:50 PM50 °FPassing clouds.14 mph67%30.30 "HgN/A
6:20 PM48 °FPassing clouds.20 mph71%30.27 "HgN/A
5:50 PM48 °FPassing clouds.15 mph66%30.27 "HgN/A
5:20 PM50 °FPassing clouds.20 mph67%30.24 "HgN/A
4:50 PM50 °FPassing clouds.16 mph67%30.24 "HgN/A
4:20 PM50 °FPassing clouds.22 mph71%30.24 "HgN/A
3:50 PM50 °FPartly sunny.16 mph71%30.21 "HgN/A
3:20 PM50 °FPartly sunny.18 mph71%30.21 "HgN/A
Weather by CustomWeather, © 2014

See weather overviewHow to use our weather pages